Fort Knox, KY

6:16 PM EDT on April 22, 2018 (GMT -0400)
Godman Army Air Field

Weather History for KFTK - August, 2014

Change the Weather History Date:

Sunday, August 31, 2014

  Actual Average Record
Temperature  
Mean Temperature 73 °F -  
Max Temperature 75 °F 83 °F 95 °F (2011)
Min Temperature 71 °F 62 °F 55 °F (1999)
Cooling Degree Days 8    
Growing Degree Days 23 (Base 50)    
Moisture  
Dew Point 73 °F    
Average Humidity 100    
Maximum Humidity 100    
Minimum Humidity 100    
Precipitation  
Precipitation 0.25 in - - ()
Sea Level Pressure  
Sea Level Pressure 30.03 in    
Wind  
Wind Speed 6 mph (South)    
Max Wind Speed 9 mph    
Max Gust Speed -    
Visibility 9 miles    
Events Rain    
Averages and records for this station are not official NWS values.
T = Trace of Precipitation, MM = Missing Value Source: NWS Daily Summary

Daily Weather History Graph

Daily Weather History Graph

Search for Another Location

Airport or City:

Astronomy

Aug. 31, 2014 Rise Set
Actual Time 7:12 AM EDT 8:14 PM EDT
Civil Twilight 6:45 AM EDT 8:41 PM EDT
Nautical Twilight 6:13 AM EDT 9:13 PM EDT
Astronomical Twilight 5:40 AM EDT 9:46 PM EDT
Moon 12:52 PM EDT (8/31) 11:35 PM EDT (8/31)
Length of Visible Light 13h 55m
Length of Day
13h 01m
Waxing Crescent, 32% of the Moon is Illuminated
Aug 31
Waxing Crescent
Sep 2
First Quarter
Sep 8
Full
Sep 15
Last Quarter
Sep 24
New

Hourly Weather History & Observations

Time (EDT) Temp. Dew Point Humidity Pressure Visibility Wind Dir Wind Speed Gust Speed Precip Events Conditions
12:17 AM 73.4 °F 73.4 °F 100% 30.04 in 10.0 mi South 8.1 mph - N/A   Partly Cloudy
12:39 AM 71.6 °F 71.6 °F 100% 30.03 in 10.0 mi South 6.9 mph - N/A   Mostly Cloudy
12:58 AM 72.5 °F 72.5 °F 100% 30.02 in 10.0 mi SSE 6.9 mph - 0.00 in   Scattered Clouds
1:19 AM 71.6 °F 71.6 °F 100% 30.03 in 10.0 mi SSE 6.9 mph - N/A Rain Light Rain
1:29 AM 71.6 °F 71.6 °F 100% 30.03 in 10.0 mi SSE 6.9 mph - N/A   Partly Cloudy
1:53 AM 71.6 °F 71.6 °F 100% 30.02 in 10.0 mi SE 6.9 mph - N/A   Scattered Clouds
1:54 AM 71.6 °F 71.6 °F 100% 30.03 in 10.0 mi SSE 5.8 mph - N/A   Scattered Clouds
1:55 AM 71.6 °F 71.6 °F 100% 30.02 in 10.0 mi SSE 5.8 mph - N/A   Scattered Clouds
1:58 AM 72.1 °F 72.1 °F 100% 30.01 in 10.0 mi SE 5.8 mph - 0.00 in   Scattered Clouds
2:03 AM 71.6 °F 71.6 °F 100% 30.02 in 10.0 mi ESE 4.6 mph - N/A   Mostly Cloudy
2:08 AM 71.6 °F 71.6 °F 100% 30.02 in 10.0 mi SE 5.8 mph - N/A   Mostly Cloudy
2:16 AM 71.6 °F 71.6 °F 100% 30.03 in 10.0 mi SSE 4.6 mph - N/A   Overcast
2:17 AM 71.6 °F 71.6 °F 100% 30.02 in 10.0 mi SSE 4.6 mph - N/A   Overcast
2:18 AM 71.6 °F 71.6 °F 100% 30.03 in 10.0 mi SSE 4.6 mph - N/A   Overcast
2:19 AM 71.6 °F 71.6 °F 100% 30.02 in 10.0 mi SSE 4.6 mph - N/A   Overcast
2:20 AM 71.6 °F 71.6 °F 100% 30.03 in 10.0 mi SSE 4.6 mph - N/A   Overcast
2:21 AM 71.6 °F 71.6 °F 100% 30.02 in 10.0 mi SSE 4.6 mph - N/A   Overcast
2:30 AM 71.6 °F 71.6 °F 100% 30.03 in 10.0 mi SSE 4.6 mph - N/A   Overcast
2:37 AM 71.6 °F 71.6 °F 100% 30.03 in 10.0 mi South 5.8 mph - N/A   Light Drizzle
2:42 AM 71.6 °F 71.6 °F 100% 30.03 in 10.0 mi South 5.8 mph - N/A   Light Drizzle
2:52 AM 71.6 °F 71.6 °F 100% 30.03 in 10.0 mi South 5.8 mph - N/A Rain Light Rain
2:58 AM 71.8 °F 71.8 °F 100% 30.02 in 10.0 mi South 5.8 mph - 0.01 in Rain Light Rain
3:03 AM 71.6 °F 71.6 °F 100% 30.03 in 10.0 mi South 6.9 mph - N/A Rain Light Rain
3:08 AM 71.6 °F 71.6 °F 100% 30.03 in 10.0 mi South 5.8 mph - N/A Rain Light Rain
3:58 AM 71.6 °F 71.6 °F 100% 30.02 in 10.0 mi South 8.1 mph - 0.01 in Rain Light Rain
4:08 AM 71.6 °F 71.6 °F 100% 30.03 in 10.0 mi South 8.1 mph - N/A Rain Light Rain
4:13 AM 71.6 °F 71.6 °F 100% 30.03 in 9.0 mi South 5.8 mph - N/A Rain Light Rain
4:23 AM 71.6 °F 71.6 °F 100% 30.03 in 10.0 mi South 8.1 mph - N/A Rain Light Rain
4:28 AM 71.6 °F 71.6 °F 100% 30.03 in 10.0 mi South 8.1 mph - N/A Rain Light Rain
4:40 AM 71.6 °F 71.6 °F 100% 30.02 in 8.0 mi South 8.1 mph - N/A Rain Light Rain
4:47 AM 71.6 °F 71.6 °F 100% 30.03 in 9.0 mi South 8.1 mph - N/A Rain Light Rain
4:48 AM 71.6 °F 71.6 °F 100% 30.02 in 9.0 mi South 8.1 mph - N/A Rain Light Rain
4:49 AM 71.6 °F 71.6 °F 100% 30.03 in 9.0 mi South 6.9 mph - N/A Rain Light Rain
4:51 AM 71.6 °F 71.6 °F 100% 30.02 in 9.0 mi South 6.9 mph - N/A Rain Light Rain
4:58 AM 71.4 °F 71.4 °F 100% 30.01 in 10.0 mi South 9.2 mph - 0.04 in Rain Light Rain
5:28 AM 71.6 °F 71.6 °F 100% 30.02 in 10.0 mi South 9.2 mph - N/A   Mostly Cloudy
5:38 AM 71.6 °F 71.6 °F 100% 30.03 in 10.0 mi South 6.9 mph - N/A   Mostly Cloudy
5:53 AM 71.6 °F 71.6 °F 100% 30.03 in 10.0 mi South 6.9 mph - N/A   Overcast
5:58 AM 71.4 °F 71.4 °F 100% 30.02 in 10.0 mi South 5.8 mph - 0.00 in   Overcast
6:03 AM 71.6 °F 71.6 °F 100% 30.03 in 10.0 mi South 4.6 mph - N/A   Overcast
6:04 AM 71.6 °F 71.6 °F 100% 30.04 in 10.0 mi South 5.8 mph - N/A   Overcast
6:24 AM 71.6 °F 71.6 °F 100% 30.03 in 10.0 mi South 5.8 mph - N/A   Overcast
6:39 AM 71.6 °F 71.6 °F 100% 30.03 in 10.0 mi SSE 6.9 mph - N/A   Overcast
6:44 AM 71.6 °F 71.6 °F 100% 30.03 in 10.0 mi South 8.1 mph - N/A   Mostly Cloudy
6:51 AM 71.6 °F 71.6 °F 100% 30.04 in 10.0 mi SSE 6.9 mph - N/A   Overcast
6:58 AM 71.4 °F 71.4 °F 100% 30.04 in 10.0 mi South 6.9 mph - N/A   Mostly Cloudy
7:11 AM 71.6 °F 71.6 °F 100% 30.05 in 10.0 mi South 5.8 mph - N/A   Mostly Cloudy
7:12 AM 71.6 °F 71.6 °F 100% 30.04 in 10.0 mi South 6.9 mph - N/A   Mostly Cloudy
7:13 AM 71.6 °F 71.6 °F 100% 30.05 in 10.0 mi South 8.1 mph - N/A   Mostly Cloudy
7:14 AM 71.6 °F 71.6 °F 100% 30.04 in 10.0 mi South 8.1 mph - N/A   Mostly Cloudy
7:23 AM 71.6 °F 71.6 °F 100% 30.05 in 10.0 mi South 8.1 mph - N/A   Mostly Cloudy
7:24 AM 71.6 °F 71.6 °F 100% 30.04 in 10.0 mi South 9.2 mph - N/A   Mostly Cloudy
7:26 AM 71.6 °F 71.6 °F 100% 30.05 in 10.0 mi South 9.2 mph - N/A   Mostly Cloudy
7:58 AM 71.2 °F 71.2 °F 100% 30.04 in 10.0 mi South 5.8 mph - N/A   Mostly Cloudy
8:13 AM 71.6 °F 71.6 °F 100% 30.06 in 10.0 mi South 5.8 mph - N/A   Mostly Cloudy
8:14 AM 71.6 °F 71.6 °F 100% 30.05 in 10.0 mi South 5.8 mph - N/A   Mostly Cloudy
8:17 AM 71.6 °F 71.6 °F 100% 30.06 in 10.0 mi South 5.8 mph - N/A   Mostly Cloudy
8:42 AM 71.6 °F 71.6 °F 100% 30.06 in 10.0 mi South 4.6 mph - N/A   Overcast
8:47 AM 71.6 °F 71.6 °F 100% 30.06 in 10.0 mi South 5.8 mph - N/A   Overcast
8:57 AM 71.6 °F 71.6 °F 100% 30.06 in 10.0 mi South 6.9 mph - N/A   Overcast
8:58 AM 71.6 °F 71.6 °F 100% 30.06 in 10.0 mi South 6.9 mph - N/A   Overcast
9:00 AM 71.6 °F 71.6 °F 100% 30.06 in 10.0 mi South 6.9 mph - N/A Rain Light Rain
9:10 AM 71.6 °F 71.6 °F 100% 30.06 in 10.0 mi South 6.9 mph - N/A Rain Light Rain
9:11 AM 71.6 °F 71.6 °F 100% 30.06 in 10.0 mi South 8.1 mph - N/A   Overcast
9:19 AM 71.6 °F 71.6 °F 100% 30.07 in 10.0 mi South 9.2 mph - N/A   Overcast
9:25 AM 71.6 °F 71.6 °F 100% 30.06 in 10.0 mi South 4.6 mph - N/A Rain Light Rain
9:26 AM 71.6 °F 71.6 °F 100% 30.07 in 10.0 mi South 4.6 mph - N/A Rain Light Rain
9:28 AM 71.6 °F 71.6 °F 100% 30.06 in 10.0 mi South 6.9 mph - N/A Rain Light Rain
9:31 AM 71.6 °F 71.6 °F 100% 30.07 in 10.0 mi South 6.9 mph - N/A Rain Light Rain
9:32 AM 71.6 °F 71.6 °F 100% 30.06 in 10.0 mi South 6.9 mph - N/A Rain Light Rain
9:50 AM 71.6 °F 71.6 °F 100% 30.07 in 7.0 mi South 6.9 mph - N/A Rain Light Rain
9:51 AM 71.6 °F 71.6 °F 100% 30.06 in 7.0 mi South 6.9 mph - N/A Rain Light Rain
9:53 AM 71.6 °F 71.6 °F 100% 30.07 in 7.0 mi South 6.9 mph - N/A Rain Light Rain
9:56 AM 71.6 °F 71.6 °F 100% 30.06 in 6.0 mi South 6.9 mph - N/A Rain Light Rain
9:57 AM 71.6 °F 71.6 °F 100% 30.07 in 6.0 mi South 6.9 mph - N/A Rain Light Rain
9:58 AM 71.4 °F 71.4 °F 100% 30.06 in 6.0 mi South 6.9 mph - 0.02 in Rain Light Rain
9:59 AM 71.6 °F 71.6 °F 100% 30.06 in 6.0 mi South 6.9 mph - N/A Rain Light Rain
10:09 AM 71.6 °F 71.6 °F 100% 30.06 in 5.0 mi South 5.8 mph - N/A Rain Light Rain
10:19 AM 71.6 °F 71.6 °F 100% 30.06 in 9.0 mi South 6.9 mph - N/A Rain Light Rain
10:24 AM 71.6 °F 71.6 °F 100% 30.06 in 9.0 mi SSE 8.1 mph - N/A Rain Light Rain
10:49 AM 71.6 °F 71.6 °F 100% 30.05 in 10.0 mi SSE 6.9 mph - N/A Rain Light Rain
10:56 AM 71.6 °F 71.6 °F 100% 30.06 in 9.0 mi SSE 8.1 mph - N/A Rain Light Rain
10:58 AM 71.4 °F 71.4 °F 100% 30.06 in 9.0 mi SSE 6.9 mph - 0.04 in Rain Light Rain
11:28 AM 71.6 °F 71.6 °F 100% 30.06 in 10.0 mi South 6.9 mph - N/A Rain Light Rain
11:33 AM 71.6 °F 71.6 °F 100% 30.06 in 9.0 mi South 5.8 mph - N/A Rain Light Rain
11:38 AM 71.6 °F 71.6 °F 100% 30.06 in 8.0 mi South 5.8 mph - N/A Rain Light Rain
11:43 AM 71.6 °F 71.6 °F 100% 30.06 in 8.0 mi South 5.8 mph - N/A Rain Light Rain
11:58 AM 72.0 °F 72.0 °F 100% 30.05 in 10.0 mi South 6.9 mph - 0.05 in Rain Light Rain
12:13 PM 71.6 °F 71.6 °F 100% 30.06 in 7.0 mi South 5.8 mph - N/A Rain Light Rain
12:18 PM 71.6 °F 71.6 °F 100% 30.06 in 10.0 mi South 5.8 mph - N/A Rain Light Rain
12:28 PM 71.6 °F 71.6 °F 100% 30.05 in 5.0 mi South 6.9 mph - N/A Rain Light Rain
12:43 PM 73.4 °F 73.4 °F 100% 30.05 in 9.0 mi South 6.9 mph - N/A Rain Light Rain
12:55 PM 73.4 °F 73.4 °F 100% 30.05 in 10.0 mi SSE 8.1 mph - N/A   Overcast
12:58 PM 73.4 °F 73.4 °F 100% 30.04 in 10.0 mi South 8.1 mph - 0.03 in   Overcast
1:03 PM 73.4 °F 73.4 °F 100% 30.05 in 10.0 mi South 9.2 mph - N/A   Overcast
1:23 PM 73.4 °F 73.4 °F 100% 30.05 in 10.0 mi South 6.9 mph - N/A   Overcast
1:38 PM 73.4 °F 73.4 °F 100% 30.05 in 9.0 mi SSE 8.1 mph - N/A   Overcast
1:39 PM 73.4 °F 73.4 °F 100% 30.05 in 8.0 mi SSE 6.9 mph - N/A Rain Light Rain
1:44 PM 73.4 °F 73.4 °F 100% 30.05 in 5.0 mi South 5.8 mph - N/A   Light Drizzle
1:49 PM 73.4 °F 73.4 °F 100% 30.05 in 3.0 mi South 5.8 mph - N/A   Light Drizzle
1:54 PM 73.4 °F 73.4 °F 100% 30.05 in 3.0 mi South 5.8 mph - N/A   Light Drizzle
1:58 PM 73.4 °F 73.4 °F 100% 30.04 in 3.0 mi South 5.8 mph - 0.01 in   Light Drizzle
1:59 PM 73.4 °F 73.4 °F 100% 30.04 in 4.0 mi South 5.8 mph - N/A   Light Drizzle
2:00 PM 73.4 °F 73.4 °F 100% 30.05 in 4.0 mi South 4.6 mph - N/A   Light Drizzle
2:01 PM 73.4 °F 73.4 °F 100% 30.04 in 4.0 mi Variable 3.5 mph - N/A   Light Drizzle
2:04 PM 73.4 °F 73.4 °F 100% 30.04 in 5.0 mi South 4.6 mph - N/A   Overcast
2:06 PM 73.4 °F 73.4 °F 100% 30.04 in 5.0 mi South 3.5 mph - N/A   Light Drizzle
2:11 PM 73.4 °F 73.4 °F 100% 30.04 in 5.0 mi South 5.8 mph - N/A   Light Drizzle
2:17 PM 71.6 °F 71.6 °F 100% 30.04 in 9.0 mi SSE 4.6 mph - N/A   Overcast
2:22 PM 73.4 °F 73.4 °F 100% 30.04 in 8.0 mi SSE 5.8 mph - N/A   Overcast
2:29 PM 71.6 °F 71.6 °F 100% 30.04 in 5.0 mi SE 4.6 mph - N/A   Light Drizzle
2:41 PM 71.6 °F 71.6 °F 100% 30.03 in 5.0 mi SE 2.3 mph - N/A   Light Drizzle
2:49 PM 71.6 °F 71.6 °F 100% 30.03 in 8.0 mi SE 4.6 mph - N/A   Overcast
2:58 PM 72.5 °F 72.5 °F 100% 30.02 in 9.0 mi ESE 3.5 mph - 0.01 in   Overcast
3:03 PM 73.4 °F 73.4 °F 100% 30.03 in 10.0 mi SSE 5.8 mph - N/A   Overcast
3:08 PM 73.4 °F 73.4 °F 100% 30.03 in 10.0 mi Variable 5.8 mph - N/A   Overcast
3:11 PM 73.4 °F 73.4 °F 100% 30.02 in 9.0 mi South 4.6 mph - N/A   Overcast
3:29 PM 73.4 °F 73.4 °F 100% 30.01 in 10.0 mi SSE 3.5 mph - N/A   Overcast
3:58 PM 73.4 °F 73.4 °F 100% 30.00 in 10.0 mi South 5.8 mph - N/A   Overcast
4:08 PM 73.4 °F 73.4 °F 100% 30.01 in 10.0 mi SSW 5.8 mph - N/A   Overcast
4:18 PM 75.2 °F 75.2 °F 100% 30.01 in 10.0 mi SSW 5.8 mph - N/A   Overcast
4:24 PM 75.2 °F 75.2 °F 100% 30.00 in 10.0 mi South 6.9 mph - N/A   Overcast
4:28 PM 75.2 °F 75.2 °F 100% 30.01 in 10.0 mi SSW 5.8 mph - N/A   Overcast
4:36 PM 75.2 °F 75.2 °F 100% 30.00 in 10.0 mi South 5.8 mph - N/A   Overcast
4:37 PM 75.2 °F 75.2 °F 100% 30.01 in 10.0 mi South 5.8 mph - N/A   Overcast
4:38 PM 75.2 °F 75.2 °F 100% 30.00 in 10.0 mi South 6.9 mph - N/A   Overcast
4:58 PM 74.7 °F 74.7 °F 100% 29.99 in 10.0 mi South 5.8 mph - N/A   Overcast
5:11 PM 75.2 °F 75.2 °F 100% 30.00 in 8.0 mi South 8.1 mph - N/A   Light Drizzle
5:21 PM 75.2 °F 75.2 °F 100% 30.00 in 6.0 mi South 5.8 mph - N/A Rain Light Rain
5:24 PM 75.2 °F 75.2 °F 100% 30.00 in 7.0 mi South 3.5 mph - N/A   Overcast
5:29 PM 75.2 °F 75.2 °F 100% 30.00 in 10.0 mi South 3.5 mph - N/A   Overcast
5:34 PM 75.2 °F 75.2 °F 100% 30.00 in 10.0 mi South 3.5 mph - N/A   Overcast
5:37 PM 75.2 °F 75.2 °F 100% 29.99 in 10.0 mi South 3.5 mph - N/A   Overcast
5:38 PM 75.2 °F 75.2 °F 100% 30.00 in 10.0 mi South 5.8 mph - N/A   Overcast
5:43 PM 75.2 °F 75.2 °F 100% 30.00 in 10.0 mi SSW 3.5 mph - N/A   Overcast
5:48 PM 75.2 °F 75.2 °F 100% 30.00 in 10.0 mi South 3.5 mph - N/A   Overcast
5:58 PM 75.2 °F 75.2 °F 100% 29.99 in 10.0 mi South 4.6 mph - 0.00 in   Overcast
6:02 PM 75.2 °F 75.2 °F 100% 30.00 in 7.0 mi South 4.6 mph - N/A Rain Light Rain
6:11 PM 75.2 °F 75.2 °F 100% 29.99 in 2.5 mi South 4.6 mph - N/A Rain Light Rain
6:16 PM 73.4 °F 73.4 °F 100% 29.99 in 3.0 mi South 8.1 mph - N/A Rain Light Rain
6:21 PM 73.4 °F 73.4 °F 100% 29.99 in 4.0 mi SSW 4.6 mph - N/A Rain Light Rain
6:30 PM 73.4 °F 73.4 °F 100% 29.99 in 7.0 mi South 4.6 mph - N/A   Overcast
6:32 PM 73.4 °F 73.4 °F 100% 29.99 in 5.0 mi South 5.8 mph - N/A   Light Drizzle
6:42 PM 73.4 °F 73.4 °F 100% 29.99 in 8.0 mi SSW 3.5 mph - N/A   Overcast
6:47 PM 73.4 °F 73.4 °F 100% 29.99 in 8.0 mi South 3.5 mph - N/A   Overcast
6:52 PM 73.4 °F 73.4 °F 100% 29.99 in 10.0 mi South 3.5 mph - N/A   Overcast
6:58 PM 74.1 °F 74.1 °F 100% 29.99 in 10.0 mi South 5.8 mph - 0.02 in   Overcast
7:33 PM 75.2 °F 75.2 °F 100% 29.99 in 10.0 mi South 5.8 mph - N/A   Overcast
7:41 PM 75.2 °F 75.2 °F 100% 29.98 in 10.0 mi South 4.6 mph - N/A   Overcast
7:42 PM 75.2 °F 75.2 °F 100% 29.99 in 10.0 mi South 4.6 mph - N/A   Overcast
7:44 PM 75.2 °F 75.2 °F 100% 29.98 in 10.0 mi South 4.6 mph - N/A   Overcast
7:58 PM 74.1 °F 74.1 °F 100% 29.97 in 10.0 mi South 4.6 mph - N/A   Overcast
8:00 PM 73.4 °F 73.4 °F 100% 29.99 in 10.0 mi South 4.6 mph - N/A   Overcast
8:05 PM 73.4 °F 73.4 °F 100% 29.99 in 10.0 mi South 3.5 mph - N/A   Overcast
8:07 PM 73.4 °F 73.4 °F 100% 29.98 in 10.0 mi South 3.5 mph - N/A   Overcast
8:09 PM 73.4 °F 73.4 °F 100% 29.99 in 10.0 mi South 4.6 mph - N/A   Overcast
8:34 PM 73.4 °F 73.4 °F 100% 29.99 in 10.0 mi South 3.5 mph - N/A   Overcast
8:38 PM 73.4 °F 73.4 °F 100% 30.00 in 10.0 mi SSW 3.5 mph - N/A   Overcast
8:58 PM 73.8 °F 73.8 °F 100% 29.99 in 10.0 mi SSW 3.5 mph - N/A   Overcast
9:08 PM 73.4 °F 73.4 °F 100% 30.00 in 10.0 mi South 2.3 mph - N/A   Overcast
9:11 PM 73.4 °F 73.4 °F 100% 30.01 in 10.0 mi SSW 3.5 mph - N/A   Overcast
9:13 PM 73.4 °F 73.4 °F 100% 30.00 in 9.0 mi South 3.5 mph - N/A   Overcast
9:18 PM 73.4 °F 73.4 °F 100% 30.00 in 9.0 mi South 3.5 mph - N/A   Overcast
9:28 PM 73.4 °F 73.4 °F 100% 30.00 in 10.0 mi South 3.5 mph - N/A   Overcast
9:58 PM 73.0 °F 73.0 °F 100% 29.99 in 10.0 mi South 2.3 mph - N/A   Mostly Cloudy
10:58 PM 72.1 °F 72.1 °F 100% 29.99 in 7.0 mi South 4.6 mph - 0.01 in   Clear
10:59 PM 71.6 °F 71.6 °F 100% 29.99 in 7.0 mi South 5.8 mph - N/A   Clear
11:33 PM 71.6 °F 71.6 °F 100% 30.00 in 10.0 mi South 5.8 mph - N/A   Clear
11:41 PM 71.6 °F 71.6 °F 100% 29.99 in 10.0 mi South 5.8 mph - N/A   Scattered Clouds
11:58 PM 72.3 °F 72.3 °F 100% 29.99 in 10.0 mi South 4.6 mph - N/A   Partly Cloudy